Location: Ferintosh
(52.7647°N, 112.9692°W)
Time: 14:39:11
(UTC+00:00)

Transit 2A Rocket - Pass Details

Date: 19 May 2024
Orbit: 583 x 910 km, 66.7° (Epoch: 14 June)

Event Time Altitude Azimuth Distance (km) Brightness Sun altitude
Rises 19:12:51 0° 319° (NW) 3,335 8.0 57.1°
Reaches altitude 10° 19:15:18 10° 325° (NW) 2,447 7.4 57.1°
Maximum altitude 19:20:52 51° 41° (NE) 1,093 6.2 57.2°
Drops below altitude 10° 19:26:44 10° 117° (ESE) 2,578 8.1 57.2°
Sets 19:29:22 0° 122° (ESE) 3,530 8.7 57.2°
